This demonstration page uses our WeatherBlox Daily Observations layout. Learn more.

Left ArrowRight Arrow

39.08367, -84.50855

Hourly Observations for September 26, 2017

Temp ( °F °C ) Dew Point ( °F °C ) Humidity (%) Winds ( mph kmh ) Pressure ( in mb ) Visibility ( mi km ) Precip ( " mm )
12:53 am 00:53 Clear with Mist and Fog 65 18.3 65 18.3 100 100 N N/A 29.99 1016 3 4 N/A
1:01 am 01:01 Clear 65 18.3 65 18.3 100 100 N N/A 29.97 1015 7 11 N/A
1:35 am 01:35 Clear with Mist and Fog 64 17.8 64 17.8 100 100 N N/A 29.97 1015 1 1 N/A
1:47 am 01:47 Clear with Mist and Fog 64 18 64 18 100 100 N N/A 29.97 1015 3 4 N/A
1:53 am 01:53 Clear with Mist and Fog 64 17.8 64 17.8 100 100 N N/A 29.99 1016 3 5 N/A
2:06 am 02:06 Clear with Mist and Fog 63 17.2 63 17.2 100 100 N N/A 29.97 1015 2 3 N/A
2:18 am 02:18 Clear with Mist and Fog 64 17.8 64 17.8 100 100 N N/A 29.97 1015 3 5 N/A
2:53 am 02:53 Clear with Mist and Fog 62 16.7 62 16.7 100 100 N N/A 30.00 1016 1 2 N/A
3:00 am 03:00 Clear with Fog 63 17.2 63 17.2 100 100 N N/A 29.97 1015 0 0 N/A
3:16 am 03:16 Clear with Mist and Fog 63 17.2 63 17.2 100 100 N N/A 29.97 1015 1 2 N/A
3:19 am 03:19 Clear with Mist and Fog 63 17.2 63 17.2 100 100 N N/A 29.97 1015 4 6 N/A
3:22 am 03:22 Clear with Mist and Fog 63 17.2 63 17.2 100 100 N N/A 29.97 1015 2 3 N/A
3:36 am 03:36 Clear with Mist and Fog 63 17.2 63 17.2 100 100 N N/A 29.97 1015 4 6 N/A
3:45 am 03:45 Clear with Mist and Fog 62 16.7 62 16.7 100 100 N N/A 29.97 1015 2 2 N/A
3:53 am 03:53 Clear with Mist and Fog 63 17.2 63 17.2 100 100 N N/A 30.00 1016 1 1 N/A
4:08 am 04:08 Clear with Mist and Fog 63 17.2 63 17.2 100 100 N N/A 29.97 1015 3 4 N/A
4:15 am 04:15 Clear with Mist and Fog 63 17.2 63 17.2 100 100 N N/A 29.97 1015 5 8 N/A
4:29 am 04:29 Mostly Clear with Mist and Fog 61 16.1 61 16.1 100 100 N N/A 29.97 1015 3 4 N/A
4:31 am 04:31 Mostly Cloudy with Mist and Fog 61 16.1 61 16.1 100 100 N N/A 29.97 1015 1 2 N/A
4:38 am 04:38 Mostly Cloudy with Fog 62 16.7 62 16.7 100 100 N N/A 29.97 1015 1 1 N/A
4:53 am 04:53 Mostly Cloudy with Fog 62 16.7 62 16.7 100 100 N N/A 30.00 1016 0 0 N/A
5:01 am 05:01 Clear with Mist and Fog 62 16.7 62 16.7 100 100 N N/A 30.00 1016 1 1 N/A
5:06 am 05:06 Mostly Cloudy with Mist and Fog 63 17.2 63 17.2 100 100 N N/A 30.00 1016 1 1 N/A
5:19 am 05:19 Mostly Cloudy with Fog 62 16.7 62 16.7 100 100 N N/A 30.00 1016 0 0 N/A
5:32 am 05:32 Cloudy with Fog 61 16.1 61 16.1 100 100 N N/A 30.00 1016 1 1 N/A
5:37 am 05:37 Cloudy with Mist and Fog 62 16.7 62 16.7 100 100 N N/A 30.00 1016 1 2 N/A
5:42 am 05:42 Cloudy with Mist and Fog 62 16.7 62 16.7 100 100 N N/A 30.00 1016 3 5 N/A
5:53 am 05:53 Cloudy with Mist and Fog 62 16.7 62 16.7 100 100 N N/A 30.01 1016 5 8 N/A
6:02 am 06:02 Cloudy with Mist and Fog 62 16.7 62 16.7 100 100 N N/A 30.00 1016 2 2 N/A
6:13 am 06:13 Cloudy with Mist and Fog 62 16.7 62 16.7 100 100 N N/A 30.00 1016 1 1 N/A
6:37 am 06:37 Mostly Cloudy with Fog 62 16.7 62 16.7 100 100 N N/A 30.00 1016 0 0 N/A
6:53 am 06:53 Mostly Cloudy with Fog 63 17.2 63 17.2 100 100 N N/A 30.02 1017 1 1 N/A
7:44 am 07:44 Cloudy with Fog 63 17.2 63 17.2 100 100 N N/A 30.00 1016 1 1 N/A
7:53 am 07:53 Cloudy with Fog 62 16.7 62 16.7 100 100 N N/A 30.03 1017 1 1 N/A
7:55 am 07:55 Cloudy with Mist and Fog 62 16.7 62 16.7 100 100 N N/A 30.00 1016 2 3 N/A
8:12 am 08:12 Cloudy with Mist and Fog 62 16.7 62 16.7 100 100 N N/A 30.00 1016 1 2 N/A
8:53 am 08:53 Mostly Cloudy with Mist and Fog 65 18.3 65 18.3 100 100 N N/A 30.04 1017 1 2 N/A
8:55 am 08:55 Partly Cloudy with Mist and Fog 65 18.3 65 18.3 100 100 N N/A 30.03 1017 3 5 N/A
9:53 am 09:53 Sunny 71 21.7 68 20 90 90 N N/A 30.04 1017 8 13 N/A
10:53 am 10:53 Sunny 78 25.6 68 20 71 71 N N/A 30.04 1017 10 16 N/A
11:53 am 11:53 Sunny 83 28.3 68 20 61 61 SSE 3 6 30.03 1017 10 16 N/A
12:53 pm 12:53 Sunny with Light Rain 85 29.4 66 18.9 53 53 SW 5 7 30.01 1016 10 16 N/A
1:53 pm 13:53 Mostly Sunny 87 30.6 63 17.2 45 45 S 6 9 29.99 1016 10 16 N/A
2:53 pm 14:53 Sunny 88 31.1 61 16.1 40 40 SW 7 11 29.97 1015 10 16 N/A
3:53 pm 15:53 Mostly Sunny 89 31.7 59 15 36 36 WSW 3 6 29.95 1014 10 16 N/A
4:53 pm 16:53 Mostly Sunny 89 31.7 60 15.6 38 38 N N/A 29.93 1014 10 16 N/A
5:53 pm 17:53 Sunny 88 31.1 62 16.7 42 42 S 5 7 29.93 1014 10 16 N/A
6:53 pm 18:53 Sunny 81 27.2 68 20 65 65 SSE 3 6 29.94 1014 10 16 N/A
7:53 pm 19:53 Clear 74 23.3 67 19.4 79 79 N N/A 29.95 1014 10 16 N/A
8:53 pm 20:53 Clear 71 21.7 66 18.9 84 84 N N/A 29.96 1015 10 16 N/A
9:53 pm 21:53 Clear 69 20.6 66 18.9 90 90 N N/A 29.97 1015 10 16 N/A
10:53 pm 22:53 Clear 67 19.4 66 18.9 97 97 N N/A 29.97 1015 10 16 N/A
11:53 pm 23:53 Clear 65 18.3 65 18.3 100 100 N N/A 29.97 1015 10 16 N/A

Powered by AerisWeather